This is the latest recevied weather packets stored in our database for station/object N1ORT. If no packets are shown the sender has not sent any weather packets the latest 1 day(s).
| Time | Temp. | Humidity | Pressure | Rain* | Wind** | Luminosity | Snow |
|---|---|---|---|---|---|---|---|
| 1778009854 | 28.33° C | 35% | 1003.1 hPa | 0 mm | 1.34 m/s, 42° | 167 W/m² | - |
| 1778009552 | 27.78° C | 37% | 1003.1 hPa | 0 mm | 1.34 m/s, 309° | 181 W/m² | - |
| 1778009250 | 29.44° C | 36% | 1003.2 hPa | 0 mm | 0.89 m/s, 113° | 708 W/m² | - |
| 1778008948 | 28.89° C | 37% | 1003.3 hPa | 0 mm | 0.89 m/s, 121° | 245 W/m² | - |
| 1778008646 | 28.89° C | 35% | 1003.6 hPa | 0 mm | 1.34 m/s, 121° | 160 W/m² | - |
| 1778008344 | 29.44° C | 35% | 1003.4 hPa | 0 mm | 4.92 m/s, 283° | 334 W/m² | - |
| 1778008040 | 30° C | 35% | 1003.8 hPa | 0 mm | 1.34 m/s, 337° | 717 W/m² | - |
| 1778007740 | 28.89° C | 33% | 1003.8 hPa | 0 mm | 1.79 m/s, 258° | 773 W/m² | - |
| 1778007436 | 27.78° C | 36% | 1003.8 hPa | 0 mm | 2.24 m/s, 268° | 794 W/m² | - |
| 1778007133 | 28.89° C | 35% | 1003.9 hPa | 0 mm | 1.34 m/s, 122° | 453 W/m² | - |
| 1778006829 | 28.89° C | 35% | 1003.9 hPa | 0 mm | 1.34 m/s, 83° | 805 W/m² | - |
| 1778006527 | 27.78° C | 36% | 1004.1 hPa | 0 mm | 0.45 m/s, 301° | 855 W/m² | - |
| 1778006223 | 27.22° C | 36% | 1004.3 hPa | 0 mm | 4.02 m/s, 278° | 227 W/m² | - |
| 1778005921 | 27.78° C | 38% | 1004 hPa | 0 mm | 1.34 m/s, 46° | 551 W/m² | - |
| 1778005616 | 27.78° C | 37% | 1004.2 hPa | 0 mm | 1.79 m/s, 300° | 224 W/m² | - |
| 1778005314 | 28.89° C | 36% | 1004.1 hPa | 0 mm | 0.89 m/s, 304° | 823 W/m² | - |
| 1778005010 | 28.33° C | 37% | 1004.2 hPa | 0 mm | 0.89 m/s, 88° | 912 W/m² | - |
| 1778004708 | 28.33° C | 38% | 1004.2 hPa | 0 mm | 2.68 m/s, 279° | 865 W/m² | - |
| 1778004404 | 28.33° C | 38% | 1004.2 hPa | 0 mm | 2.24 m/s, 262° | 839 W/m² | - |
| 1778004102 | 28.33° C | 37% | 1004.8 hPa | 0 mm | 1.34 m/s, 97° | 881 W/m² | - |
| 1778003797 | 28.33° C | 38% | 1004.7 hPa | 0 mm | 1.79 m/s, 254° | 864 W/m² | - |
| 1778003494 | 28.33° C | 38% | 1004.8 hPa | 0 mm | 2.68 m/s, 248° | 838 W/m² | - |
| 1778003191 | 27.78° C | 38% | 1004.6 hPa | 0 mm | 0.89 m/s, 29° | 839 W/m² | - |
| 1778002887 | 28.33° C | 37% | 1004.9 hPa | 0 mm | 4.02 m/s, 295° | 875 W/m² | - |
| 1778002583 | 27.78° C | 38% | 1004.9 hPa | 0 mm | 1.79 m/s, 293° | 843 W/m² | - |
* Rain latest hour (hover to see other rain measurements)
** Current wind speed in m/s (hover to see current wind gust speed)